Weather in Temirlanovka

Kazakhstan     42°35′56″N   69°15′22″E
temp.,
°C
wind,
m/s
gust,
m/s
humid.,
%
clouds,
%
prec.,
mm/h
press.,
hPa
HPBL,
m
26 october, tue
tue2600:00+12s33310 0.0 101722
03:00+11ssw33320 0.0 101717
06:00+10s333445 0.0 101820
09:00+11s333371 0.0 101973
12:00+18wsw692190 0.0 1019847
15:00+19wsw6819100 0.0 10191306
18:00+17wsw462558 0.0 1020109
21:00+14ssw3329100 0.0 102118
27 october, wed
wed2700:00+13ssw2231100 0.0 102219
03:00+13s2232100 0.0 102223
06:00+12ssw2234100 0.0 102313
09:00+12sw1234100 0.0 102422
12:00+15w2326100 0.0 1024381
15:00+16wnw2327100 0.0 1023630
18:00+14nnw2233100 0.0 102326
21:00+13n3339100 0.0 102352
28 october, thu
thu2800:00+12n2447100 0.0 102375
03:00+11n2250100 0.0 102334
06:00+11sse1146100 0.0 102314
09:00+11sse2252100 0.0 1025156
12:00+12s2460100 0.3 1025483
15:00+11sw587260 1.9 1026790
18:00+12sw3555100 2.0 1026175
21:00+10wnw245980 0.1 1027360
29 october, fri
fri2900:00+9w245985 0.1 1028155
03:00+9wsw125998 0.0 102884
06:00+7wsw11685 0.0 102910
09:00+7w11680 0.0 103050
12:00+11nw11530 0.0 1029655
15:00+13wnw22460 0.0 1028858
18:00+12nnw22510 0.0 102822
21:00+10nne22590 0.0 102818
30 october, sat
sat3000:00+9ne22640 0.0 102813
03:00+8ene116797 0.0 102810
06:00+8ene22705 0.0 102911
09:00+9ene23660 0.0 103041
12:00+15ne21410 0.0 1029428
15:00+17nnw1136100 0.0 1027801
18:00+15nnw334399 0.0 102831
21:00+13n3343100 0.0 102847